Merida, Mexico

2:15 PM CDT on May 29, 2017 (GMT -0500)
Lic Manuel Crecencio Rejon

Weather History for MMMD - November, 2013

Change the Weather History Date:

Tuesday, November 12, 2013

  Actual Average Record
Temperature  
Mean Temperature 82 °F -  
Max Temperature 90 °F 86 °F 93 °F (1997)
Min Temperature 73 °F 68 °F 59 °F (2005)
Cooling Degree Days 16    
Growing Degree Days 32 (Base 50)    
Moisture  
Dew Point 73 °F    
Average Humidity 82    
Maximum Humidity 100    
Minimum Humidity 52    
Precipitation  
Precipitation 0.00 in - - ()
Sea Level Pressure  
Sea Level Pressure 29.98 in    
Wind  
Wind Speed 3 mph ()    
Max Wind Speed 12 mph    
Max Gust Speed -    
Visibility 6.2 miles    
Events      
Averages and records for this station are not official NWS values.
T = Trace of Precipitation, MM = Missing Value Source: Averaged Metar Reports

Daily Weather History Graph

Daily Weather History Graph

Search for Another Location

Airport or City:

Trip Planner

Search our weather history database for the weather conditions in past years. The results will help you decide how hot, cold, wet, or windy it might be!

Date:

Astronomy

Nov. 12, 2013 Rise Set
Actual Time 6:07 AM CST 5:18 PM CST
Civil Twilight 5:44 AM CST 5:41 PM CST
Nautical Twilight 5:17 AM CST 6:08 PM CST
Astronomical Twilight 4:50 AM CST 6:34 PM CST
Moon 2:00 PM CST (11/12) 1:33 AM CST (11/12)
Length of Visible Light 11h 57m
Length of Day
11h 10m
Waxing Gibbous, 76% of the Moon is Illuminated
Nov 12
Waxing Gibbous
Nov 17
Full
Nov 25
Last Quarter
Dec 2
New
Dec 9
First Quarter

Hourly Weather History & Observations

Time (CST) Temp. Heat Index Dew Point Humidity Pressure Visibility Wind Dir Wind Speed Gust Speed Precip Events Conditions
12:45 AM 73.4 °F - 71.6 °F 94% 29.98 in 7.0 mi Calm Calm - N/A   Mostly Cloudy
1:45 AM 73.4 °F - 71.6 °F 94% 29.97 in 7.0 mi Calm Calm - N/A   Scattered Clouds
2:47 AM 73.4 °F - 73.4 °F 100% 29.96 in 7.0 mi Calm Calm - N/A   Scattered Clouds
2:50 AM 75 °F - 74 °F 95% 29.95 in 3 mi Calm Calm - -   Partly Cloudy
3:47 AM 73.4 °F - 73.4 °F 100% 29.94 in 7.0 mi Calm Calm - N/A   Scattered Clouds
4:54 AM 73.4 °F - 73.4 °F 100% 29.95 in 7.0 mi Calm Calm - N/A   Scattered Clouds
5:48 AM 73.4 °F - 71.6 °F 94% 29.97 in 7.0 mi ENE 4.6 mph - N/A   Mostly Cloudy
5:50 AM 74 °F - 73 °F 96% 29.99 in 3 mi ENE 2.2 mph - -   Partly Cloudy
6:47 AM 73.4 °F - 73.4 °F 100% 30.00 in 5.0 mi Calm Calm - N/A   Mostly Cloudy
7:46 AM 77.0 °F - 75.2 °F 94% 30.02 in 5.0 mi East 4.6 mph - N/A   Scattered Clouds
8:46 AM 80.6 °F 86.2 °F 75.2 °F 84% 30.01 in 6.0 mi East 4.6 mph - N/A   Scattered Clouds
8:50 AM 82 °F - 76 °F 78% 30.04 in 6 mi ESE 2.2 mph - -   Scattered Clouds
9:12 AM 80.6 °F 85.4 °F 73.4 °F 79% 30.02 in 7.0 mi ENE 5.8 mph - N/A   Mostly Cloudy
9:43 AM 82.4 °F 88.2 °F 73.4 °F 74% 30.02 in 7.0 mi ENE 5.8 mph - N/A   Mostly Cloudy
10:44 AM 84.2 °F 89.6 °F 71.6 °F 66% 30.00 in 7.0 mi ENE 5.8 mph - N/A   Mostly Cloudy
11:49 AM 87.8 °F 92.6 °F 69.8 °F 55% 29.97 in 7.0 mi ENE 3.5 mph - N/A   Mostly Cloudy
11:50 AM 87 °F - 75 °F 59% 29.98 in 6 mi NE 2.2 mph - -   Partly Cloudy
12:45 PM 89.6 °F 94.7 °F 69.8 °F 52% 29.94 in 7.0 mi NW 5.8 mph - N/A   Scattered Clouds
1:45 PM 87.8 °F 92.6 °F 69.8 °F 55% 29.92 in 7.0 mi NNW 3.5 mph - N/A   Scattered Clouds
2:42 PM 86.0 °F 93.4 °F 73.4 °F 66% 29.90 in 7.0 mi NNW 6.9 mph - N/A   Scattered Clouds
2:50 PM 86 °F - 77 °F 68% 29.91 in 6 mi NNW 4.5 mph - -   Partly Cloudy
3:43 PM 82.4 °F 87.2 °F 71.6 °F 70% 29.92 in 7.0 mi North 9.2 mph - N/A   Mostly Cloudy
4:47 PM 80.6 °F 84.6 °F 71.6 °F 74% 29.93 in 7.0 mi North 11.5 mph - N/A   Mostly Cloudy
5:44 PM 78.8 °F - 73.4 °F 83% 29.97 in 7.0 mi North 6.9 mph - N/A   Mostly Cloudy
5:50 PM 80 °F - 76 °F 84% 29.96 in 3 mi NNE 2.2 mph - -   Mostly Cloudy
6:42 PM 78.8 °F - 71.6 °F 78% 29.97 in 7.0 mi NE 9.2 mph - N/A   Mostly Cloudy
7:43 PM 78.8 °F - 71.6 °F 78% 29.98 in 7.0 mi NE 4.6 mph - N/A   Mostly Cloudy
8:43 PM 77.0 °F - 73.4 °F 89% 30.02 in 7.0 mi NE 6.9 mph - N/A   Mostly Cloudy
8:50 PM 78 °F - 75 °F 88% 30.01 in 3 mi NE 6.7 mph - -   Partly Cloudy
9:44 PM 77.0 °F - 71.6 °F 83% 30.02 in 7.0 mi Calm Calm - N/A   Mostly Cloudy
10:47 PM 77.0 °F - 73.4 °F 89% 30.01 in 7.0 mi ENE 5.8 mph - N/A   Mostly Cloudy
11:43 PM 75.2 °F - 73.4 °F 94% 30.01 in 7.0 mi Calm Calm - N/A   Scattered Clouds
11:50 PM 77 °F - 75 °F 90% 29.99 in 3 mi ENE 2.2 mph - -   Scattered Clouds